K5LLL-13 Weather Reports


time (UTC)temp
F
wind
direction
speed
knots
gust
knots
rain 1hr
in
rain 24hr
in
rain mn
in
humidity
%
barometer
mb
20260506014017 78 135 3.5 7.0 0.00 0.00 0.00 84 1007.7
20260506013017 79 135 4.3 8.7 0.00 0.00 0.00 83 1007.7
20260506012017 79 158 2.6 6.1 0.00 0.00 0.00 83 1007.7
20260506011017 79 158 0.9 3.5 0.00 0.00 0.00 83 1007.5
20260506010017 80 158 2.6 5.2 0.00 0.00 0.00 82 1007.4
20260506005017 80 135 3.5 7.8 0.00 0.00 0.00 81 1007.0
20260506004037 80 135 3.5 8.7 0.00 0.00 0.00 81 1007.0
20260506003016 81 135 4.3 9.6 0.00 0.00 0.00 81 1006.9
20260506002017 81 135 4.3 9.6 0.00 0.00 0.00 80 1006.8
20260506001017 81 135 2.6 6.1 0.00 0.00 0.00 80 1006.7
20260506000056 81 135 5.2 10.4 0.00 0.00 0.00 79 1006.7
20260505235017 82 135 6.1 10.4 0.00 0.00 0.00 79 1006.6
20260505234017 82 135 4.3 10.4 0.00 0.00 0.00 78 1006.6
20260505233036 83 135 4.3 8.7 0.00 0.00 0.00 77 1006.6
20260505232017 83 135 5.2 9.6 0.00 0.00 0.00 76 1006.5
20260505231016 83 135 2.6 7.0 0.00 0.00 0.00 75 1006.6
20260505230016 83 158 4.3 7.8 0.00 0.00 0.00 74 1006.5
20260505225016 83 158 4.3 10.4 0.00 0.00 0.00 74 1006.6
20260505224016 83 158 5.2 9.6 0.00 0.00 0.00 74 1006.6
20260505223036 83 158 5.2 13.0 0.00 0.00 0.00 74 1006.6
20260505222016 83 158 5.2 13.9 0.00 0.00 0.00 74 1006.7
20260505221016 83 180 5.2 10.4 0.00 0.00 0.00 74 1006.7
20260505220017 83 158 4.3 12.2 0.00 0.00 0.00 73 1006.9
20260505215016 84 203 4.3 11.3 0.00 0.00 0.00 74 1006.9
20260505214016 84 180 7.0 13.0 0.00 0.00 0.00 72 1007.0
20260505213016 84 203 7.0 16.5 0.00 0.00 0.00 72 1007.1
20260505212016 83 203 7.0 13.9 0.00 0.00 0.00 73 1007.2
20260505211016 83 203 5.2 12.2 0.00 0.00 0.00 75 1007.5
20260505210016 82 203 7.0 13.0 0.00 0.00 0.00 75 1007.7
20260505205016 82 203 3.5 9.6 0.00 0.00 0.00 76 1007.9
20260505204056 82 203 7.0 14.8 0.00 0.00 0.00 76 1008.1
20260505203016 81 203 7.8 14.8 0.00 0.00 0.00 77 1008.2
20260505202016 82 158 4.3 11.3 0.00 0.00 0.00 77 1008.3
20260505201016 81 203 6.1 12.2 0.00 0.00 0.00 78 1008.3
20260505200036 82 225 5.2 12.2 0.00 0.00 0.00 77 1008.4
20260505195016 81 203 7.8 13.9 0.00 0.00 0.00 78 1008.7
20260505194016 81 158 8.7 16.5 0.00 0.00 0.00 77 1008.9
20260505193016 80 158 7.8 14.8 0.00 0.00 0.00 79 1008.9
20260505191016 80 158 7.0 13.9 0.00 0.00 0.00 80 1009.2
20260505190056 79 158 6.1 11.3 0.00 0.00 0.00 81 1009.0
20260505185016 79 203 6.1 15.6 0.00 0.00 0.00 82 1009.2
20260505184016 78 203 5.2 10.4 0.00 0.00 0.00 83 1009.3
20260505183016 78 203 4.3 11.3 0.00 0.00 0.00 83 1009.4
20260505182016 78 180 7.8 13.0 0.00 0.00 0.00 84 1009.5
20260505181016 77 203 7.0 14.8 0.00 0.00 0.00 84 1009.6
20260505180036 77 203 6.1 12.2 0.00 0.00 0.00 85 1009.5
20260505175016 77 225 7.0 12.2 0.00 0.00 0.00 84 1009.6
20260505174036 77 203 3.5 11.3 0.00 0.00 0.00 84 1009.7
20260505173016 77 180 5.2 11.3 0.00 0.00 0.00 85 1009.6
20260505172016 76 203 7.0 13.0 0.00 0.00 0.00 86 1009.5
20260505171016 76 203 4.3 10.4 0.00 0.00 0.00 87 1009.7
20260505170016 75 203 5.2 11.3 0.00 0.00 0.00 89 1009.8
20260505165016 75 203 7.8 15.6 0.00 0.00 0.00 89 1009.8
20260505164016 74 203 6.1 13.9 0.00 0.00 0.00 89 1010.0
20260505163016 74 225 6.1 13.0 0.00 0.00 0.00 89 1010.0
20260505162016 74 203 7.0 14.8 0.00 0.00 0.00 89 1010.0
20260505161016 74 203 7.8 15.6 0.00 0.00 0.00 89 1010.0
20260505153036 73 203 5.2 12.2 0.00 0.00 0.00 92 1009.6
20260505152015 72 203 5.2 12.2 0.00 0.00 0.00 92 1009.6
20260505151015 72 203 5.2 11.3 0.00 0.00 0.00 92 1009.7
20260505125015 71 203 5.2 12.2 0.00 0.00 0.00 92 1008.9
20260505124015 71 180 8.7 16.5 0.00 0.00 0.00 92 1008.8
20260505123015 71 203 7.0 13.0 0.00 0.00 0.00 92 1008.8
20260505122015 71 180 7.8 14.8 0.00 0.00 0.00 92 1008.6
20260505121035 71 180 7.0 17.4 0.00 0.00 0.00 92 1008.6
20260505120035 71 203 5.2 11.3 0.00 0.00 0.00 92 1008.3
20260505115015 70 180 6.1 13.9 0.00 0.00 0.00 92 1008.6
20260505114015 70 158 6.1 14.8 0.00 0.00 0.00 91 1008.4
20260505113015 70 203 6.1 11.3 0.00 0.00 0.00 91 1008.6
20260505112015 70 203 6.1 15.6 0.00 0.00 0.00 91 1008.4
20260505111015 70 203 4.3 11.3 0.00 0.00 0.00 91 1008.4
20260505102017 70 180 7.0 18.2 0.00 0.00 0.00 90 1008.6
20260505101015 70 180 6.1 13.9 0.00 0.00 0.00 90 1008.5
20260505100017 70 203 6.1 15.6 0.00 0.00 0.00 90 1008.7
20260505095037 70 203 7.0 13.0 0.00 0.00 0.00 91 1008.5
20260505094037 70 158 7.8 15.6 0.00 0.00 0.00 91 1008.8
20260505093017 70 158 7.8 17.4 0.00 0.00 0.00 91 1008.9
20260505092017 70 203 7.0 17.4 0.00 0.00 0.00 91 1008.8
20260505091017 70 203 5.2 10.4 0.00 0.00 0.00 90 1008.6
20260505090017 70 203 7.0 17.4 0.00 0.00 0.00 90 1008.6
20260505084017 70 203 6.1 12.2 0.00 0.00 0.00 90 1008.8
20260505083017 70 158 7.0 15.6 0.00 0.00 0.00 90 1009.0
20260505082017 70 180 7.0 13.0 0.00 0.00 0.00 90 1009.2
20260505081017 70 158 5.2 11.3 0.00 0.00 0.00 90 1009.5
20260505080017 70 158 5.2 11.3 0.00 0.00 0.00 90 1009.5
20260505075017 70 180 7.0 15.6 0.00 0.00 0.00 90 1009.4
20260505074017 70 158 7.0 16.5 0.00 0.00 0.00 90 1009.6
20260505073017 70 158 7.0 14.8 0.00 0.00 0.00 90 1009.8
20260505072017 70 180 7.0 15.6 0.00 0.00 0.00 90 1009.8
20260505071017 70 158 5.2 12.2 0.00 0.00 0.00 90 1010.0
20260505070017 70 158 7.0 15.6 0.00 0.00 0.00 90 1009.9
20260505065036 70 180 7.0 15.6 0.00 0.00 0.00 90 1010.2
20260505064057 70 158 7.0 13.9 0.00 0.00 0.00 90 1010.4
20260505063016 70 158 7.8 13.9 0.00 0.00 0.00 90 1010.4
20260505062017 69 158 7.0 12.2 0.00 0.00 0.00 91 1010.5
20260505061017 69 180 6.1 13.0 0.00 0.00 0.00 90 1010.3
20260505060016 69 180 7.8 17.4 0.00 0.00 0.00 90 1010.2
20260505055017 69 158 7.8 14.8 0.00 0.00 0.00 90 1010.2
20260505054016 69 135 7.0 13.0 0.00 0.00 0.00 90 1010.2
20260505053017 69 158 7.8 14.8 0.00 0.00 0.00 89 1010.3
20260505052016 69 158 7.8 15.6 0.00 0.00 0.00 89 1010.4
20260505051036 70 158 6.1 12.2 0.00 0.00 0.00 88 1010.4
20260505041017 71 158 6.1 13.9 0.00 0.00 0.00 85 1010.8
20260505040017 71 135 6.1 10.4 0.00 0.00 0.00 85 1010.7
20260505035017 71 135 5.2 10.4 0.00 0.00 0.00 84 1010.6
20260505034017 72 135 7.0 13.0 0.00 0.00 0.00 83 1010.5
20260505033017 72 135 7.8 13.9 0.00 0.00 0.00 83 1010.6
20260505032017 73 158 7.8 13.9 0.00 0.00 0.00 82 1010.9
20260505031017 73 135 6.1 12.2 0.00 0.00 0.00 82 1010.8
20260505030017 73 135 6.1 15.6 0.00 0.00 0.00 82 1010.8
20260505025017 73 158 6.1 15.6 0.00 0.00 0.00 81 1010.7
20260505024017 73 135 6.1 10.4 0.00 0.00 0.00 81 1010.5
20260505023017 73 158 5.2 9.6 0.00 0.00 0.00 81 1010.4
20260505022017 73 135 3.5 7.0 0.00 0.00 0.00 80 1010.5
20260505021017 74 135 4.3 7.8 0.00 0.00 0.00 80 1010.3
20260505020016 74 158 4.3 11.3 0.00 0.00 0.00 79 1010.2
20260505015037 74 135 4.3 9.6 0.00 0.00 0.00 79 1010.3